TimeEDT,TemperatureF,Dew PointF,Humidity,Sea Level PressureIn,VisibilityMPH,Wind Direction,Wind SpeedMPH,Gust SpeedMPH,PrecipitationIn,Events,Conditions,WindDirDegrees,DateUTC
12:53 AM,57.9,57.0,97,29.90,10.0,NW,8.1,-,N/A,,Partly Cloudy,320,2013-03-21 04:53:00
2:53 AM,59.0,57.0,93,29.89,10.0,NNW,8.1,-,N/A,,Clear,330,2013-03-21 06:53:00
3:53 AM,59.0,57.0,93,29.88,10.0,NNW,8.1,-,N/A,,Clear,330,2013-03-21 07:53:00
4:53 AM,57.0,53.1,87,29.89,10.0,NNW,4.6,-,N/A,,Clear,340,2013-03-21 08:53:00
5:53 AM,57.0,52.0,83,29.90,10.0,North,5.8,-,N/A,,Clear,360,2013-03-21 09:53:00
6:53 AM,55.9,48.0,75,29.91,10.0,NNE,13.8,18.4,N/A,,Clear,20,2013-03-21 10:53:00
7:53 AM,53.1,41.0,64,29.95,10.0,NNE,5.8,-,N/A,,Clear,30,2013-03-21 11:53:00
8:53 AM,55.9,39.9,55,29.96,10.0,NNE,5.8,-,N/A,,Clear,30,2013-03-21 12:53:00
9:53 AM,59.0,36.0,42,29.97,10.0,NNE,11.5,17.3,N/A,,Clear,20,2013-03-21 13:53:00
10:53 AM,64.0,34.0,33,29.99,10.0,NE,9.2,-,N/A,,Clear,40,2013-03-21 14:53:00
11:53 AM,64.9,32.0,29,29.99,10.0,North,11.5,-,N/A,,Clear,360,2013-03-21 15:53:00
12:53 PM,66.0,30.9,27,29.98,10.0,NNW,11.5,19.6,N/A,,Clear,340,2013-03-21 16:53:00
1:53 PM,66.0,28.9,25,29.96,10.0,NNW,4.6,18.4,N/A,,Clear,340,2013-03-21 17:53:00
2:53 PM,68.0,33.1,27,29.93,10.0,NW,10.4,-,N/A,,Clear,320,2013-03-21 18:53:00
3:53 PM,69.1,34.0,27,29.92,10.0,North,8.1,-,N/A,,Clear,10,2013-03-21 19:53:00
4:53 PM,68.0,36.0,31,29.91,10.0,NNW,10.4,17.3,N/A,,Clear,340,2013-03-21 20:53:00
5:53 PM,66.9,39.0,36,29.92,10.0,NNW,8.1,-,N/A,,Clear,330,2013-03-21 21:53:00
6:53 PM,63.0,41.0,45,29.92,10.0,NW,9.2,-,N/A,,Clear,320,2013-03-21 22:53:00
7:53 PM,57.0,42.1,57,29.94,10.0,NW,6.9,-,N/A,,Clear,320,2013-03-21 23:53:00
8:53 PM,55.0,42.1,62,29.95,10.0,NW,4.6,-,N/A,,Clear,310,2013-03-22 00:53:00
9:53 PM,53.1,44.1,71,29.96,10.0,NW,4.6,-,N/A,,Clear,320,2013-03-22 01:53:00
10:53 PM,53.1,43.0,69,29.96,10.0,Calm,Calm,-,N/A,,Clear,0,2013-03-22 02:53:00
11:53 PM,50.0,42.1,74,29.95,10.0,Calm,Calm,-,N/A,,Clear,0,2013-03-22 03:53:00